Simultaneous Nadir Overpasses (SNOs) Predictions

Prediction of SNOs between FY3D and AQUA Satellite Orbit:

Table of predicted SNOs for the next 14.0 days since TLE Epoch: 4/16/2022
Index Date (FY3D) Time (FY3D) Lat,Lon (FY3D) SZA (FY3D ) Date (AQUA) Time (AQUA) Lat,Lon (AQUA) SZA (AQUA ) Distance(km) Time Diff (sec)
1 04/17/2022 11:44:32 -75.07, 175.35 115.41 04/17/2022 11:45:21 -75.07, 175.33 115.42 0.75 49
2 04/17/2022 12:34:52 73.79, -13.93 63.19 04/17/2022 12:34:23 73.79, -13.92 63.19 0.42 29
3 04/20/2022 03:11:40 75.09, 123.53 63.69 04/20/2022 03:12:08 75.08, 123.62 63.68 2.61 28
4 04/20/2022 04:01:45 -73.14, -64.18 118.42 04/20/2022 04:00:56 -73.15, -64.25 118.40 2.48 49
5 04/22/2022 18:38:40 -74.79, 72.64 117.54 04/22/2022 18:38:47 -74.79, 72.72 117.55 2.55 7
6 04/22/2022 19:28:47 72.86,-115.34 60.40 04/22/2022 19:27:37 72.87,-115.37 60.41 1.12 70
7 04/25/2022 09:15:15 -75.50,-148.53 117.62 04/25/2022 09:16:19 -75.50,-148.52 117.64 0.22 64
8 04/25/2022 10:05:38 74.41, 21.94 61.17 04/25/2022 10:05:24 74.40, 22.00 61.16 1.76 14
9 04/28/2022 00:42:11 74.99, 161.25 60.97 04/28/2022 00:42:54 75.00, 161.16 60.97 2.82 43



Historial Predications of SNOs between FY3D and AQUA
